Starlink 36518

operational
NORAD ID: 67453 Int'l Des: 2026-008 Owner: SPXS Country: US Constellation: starlink
LEOCIRCULAR

Über Starlink 36518

Beschreibung wird geladen...

Live-Position

3D-Globus wird geladen...

Nächste Überflüge

Höhenverlauf

Altitude vs Time

uPlot chart will show altitude changes over time

Zweizeiliger Elementsatz

1 67453U 26008J 26061.51844003 .00044896 00000-0 16299-2 0 9991
2 67453 42.9973 245.8636 0001462 266.3811 93.6873 15.27604488 8475
Epoch: 2. März 2026 • Age: 28 hours

Aktueller Status

Höhe 486.9 km
Geschwindigkeit 7.63 km/s
Subsatellitenpunkt 42.81°N, 94.69°E
Startdatum 14. Jan. 2026
Alter 0.1 years
Typ internet

Technische Details

Klassifizierung Payload
Masse 575.00 kg
Trockenmasse 530.00 kg
Gesamtmasse 575.00 kg
Länge 0.30 m
Durchmesser 4.10 m
Spannweite 29.00 m
Form Box + pan
Hersteller SPXS
Bus-Typ Starlink V2MO
Phasenstatus In Orbit
Besitzer/Staat SPXS/US

Große Konstellationen

Loading constellations...